Location: Firdgum
(53.2488°N, 5.5615°E)
Time: 00:18:33
(UTC+00:00)

Okean 1 - Pass Details

Date: 08 December 2019
Orbit: 540 x 555 km, 82.5° (Epoch: 22 January)

Event Time Altitude Azimuth Distance (km) Brightness Sun altitude
Exits shadow 04:59:11 30° 5° (N) 1,004 4.6 -22.4°
Maximum altitude 05:01:01 62° 76° (ENE) 612 3.7 -22.2°
Drops below altitude 10° 05:04:56 10° 158° (SSE) 1,802 6.3 -21.6°
Sets 05:07:06 0° 162° (SSE) 2,691 7.2 -21.3°
